(196) Philomela
ephemeris date magn radius delta ra dec elong phase
Today23 Jun 202612.73.157 AU4.119 AU07h15m+25°53'16.2°5.2°
Opposition24 Feb 202711.23.140 AU2.162 AU10h46m+19°10'169.5°3.3°
(196) Philomela - 2026-06-23
astro.vanbuitenen.nl


 
-1 year
-1 month
-1 day
Now
+1 day
+1 month
+1 year

The interactive orbit chart above shows the body's path through the solar system and its position at the given date. Green and blue lines are shown perpendicular to the ecliptic plane: Green if the path is above the ecliptic plane, blue if it is below. (Left-click and drag to rotate the view; Right-click and drag to move the view; Use scroll wheel to zoom in our out.)

The orbital elements of Philomela are:

            e (Eccentricity)                : 0.0126069
            a (Semimajor axis)              : 3.1181206
            i (Inclination)                 : 7.25449
            Ω (Longitude of ascending node) : 72.27836
            ω (Argument of perihelion)      : 207.78903
            M (Mean anomaly)                : 190.08248
            Epoch                           : 2026 Jun 09

            L (Longitude of perihelion)     : 99.87789
            B (Latitude of perihelion)      : -3.37509
            P (Orbital period in years)     : 5.51            
        

The light curve chart below shows the estimated development of the minor planet's magnitude.


The all-sky chart below shows the path of the minor planet over the same period as the light curve. The current position is marked yellow.





The following chart shows the path of the minor planet in the next few days. The field of view is optimized for (~10x50) binoculars and finderscopes.




Ephemerides:
Date       Time       RA (2000)    DEC (2000)    delta   radius  elong  phase   PA    magn
2026-06-23 00:00 UT   07 15 57.1   +25 53 30     4.119    3.157   16.2    5.2    85   12.7 
2026-06-23 11:44 UT   07 16 43.7   +25 52 25     4.121    3.156   16.0    5.1    85   12.7 
2026-06-24 00:00 UT   07 17 32.4   +25 51 16     4.123    3.156   15.7    5.0    85   12.7 
2026-06-25 00:00 UT   07 19 07.7   +25 48 58     4.127    3.156   15.1    4.8    84   12.7 
2026-06-26 00:00 UT   07 20 43.0   +25 46 36     4.130    3.156   14.5    4.6    84   12.7 
2026-06-27 00:00 UT   07 22 18.4   +25 44 12     4.133    3.156   13.9    4.4    83   12.7 
2026-06-28 00:00 UT   07 23 53.8   +25 41 44     4.137    3.156   13.4    4.3    83   12.7 
2026-06-29 00:00 UT   07 25 29.2   +25 39 13     4.140    3.156   12.8    4.1    82   12.7 
2026-06-30 00:00 UT   07 27 04.7   +25 36 39     4.142    3.156   12.2    3.9    81   12.7 
2026-07-01 00:00 UT   07 28 40.1   +25 34 01     4.145    3.156   11.7    3.7    81   12.7 
2026-07-02 00:00 UT   07 30 15.6   +25 31 21     4.148    3.156   11.1    3.6    80   12.6 
2026-07-03 00:00 UT   07 31 51.1   +25 28 37     4.150    3.156   10.6    3.4    79   12.6 
2026-07-04 00:00 UT   07 33 26.6   +25 25 50     4.152    3.156   10.0    3.2    78   12.6 
2026-07-05 00:00 UT   07 35 02.1   +25 22 59     4.154    3.156    9.5    3.0    76   12.6 
2026-07-06 00:00 UT   07 36 37.5   +25 20 06     4.156    3.156    9.0    2.9    75   12.6 
2026-07-07 00:00 UT   07 38 13.0   +25 17 09     4.158    3.156    8.4    2.7    74   12.6 
2026-07-08 00:00 UT   07 39 48.5   +25 14 09     4.160    3.156    7.9    2.5    72   12.6 
2026-07-09 00:00 UT   07 41 23.9   +25 11 07     4.162    3.156    7.4    2.4    70   12.6 
2026-07-10 00:00 UT   07 42 59.4   +25 08 01     4.163    3.156    6.9    2.2    67   12.6 
2026-07-11 00:00 UT   07 44 34.8   +25 04 51     4.164    3.156    6.4    2.1    64   12.6 
2026-07-12 00:00 UT   07 46 10.1   +25 01 39     4.165    3.156    6.0    1.9    61   12.5 
2026-07-13 00:00 UT   07 47 45.5   +24 58 24     4.166    3.156    5.5    1.8    57   12.5 
2026-07-14 00:00 UT   07 49 20.8   +24 55 06     4.167    3.156    5.1    1.6    53   12.5 
2026-07-15 00:00 UT   07 50 56.0   +24 51 45     4.168    3.156    4.8    1.5    48   12.5 
2026-07-16 00:00 UT   07 52 31.2   +24 48 21     4.168    3.156    4.4    1.4    41   12.5 


    Terminology:
            
    delta:  distance between minor planet and earth in AU
    radius: distance between minor planet and sun in AU
    magn:   magnitude (brightness) estimate    
    ra:     right ascension in hours (24h = 360deg)
    dec:    declination in degrees
    elong:  elongation in degrees (angle sun-earth-minor planet)    
    phase:  phase angle in degrees (angle sun-minor planet-earth)        
    AU:     Astronomical Unit (mean distance between earth and sun: 149597870.7 km
    

Orbital elements provided by the MPC (Minor Planet Center).
Calculations by a modified version of AAPlus, a C# implementation of the AA+ project by PJ Naughter from the algorithms presented in the book "Astronomical Algorithms" by Jean Meeus.
NGC2000 dso catalog and star labels from VizieR as provided by the Strasbourg astronomical Data Center.
Tycho2 catalog from the ESO archive.